Location: Aytr�
(46.1357°N, 1.1145°W)
Time: 15:53:55
(UTC+00:00)

Okean 1-7 - Pass Details

Date: 03 March 2021
Orbit: 589 x 619 km, 82.5° (Epoch: 18 April)

Event Time Altitude Azimuth Distance (km) Brightness Sun altitude
Rises 19:34:41 0° 350° (N) 2,897 6.8 -18.2°
Reaches altitude 10° 19:36:55 10° 350° (N) 1,983 5.9 -18.6°
Maximum altitude 19:41:19 84° 264° (W) 620 3.0 -19.3°
Drops below altitude 10° 19:45:38 10° 175° (S) 1,949 5.4 -20.1°
Enters shadow 19:45:46 - 175° (S) 1,999 5.5 -20.1°
